www.pogodaiklimat.ru
Время
(UTC), дата
21 20.01
00 21.01
03 21.01
06 21.01
09 21.01
12 21.01
15 21.01
18 21.01
21 21.01
00 22.01
03 22.01
06 22.01
09 22.01
12 22.01
15 22.01
18 22.01
21 22.01
00 23.01
03 23.01
06 23.01
09 23.01
12 23.01
15 23.01
18 23.01
21 23.01
00 24.01
03 24.01
06 24.01
09 24.01
12 24.01
15 24.01
18 24.01
21 24.01
00 25.01
03 25.01
06 25.01
09 25.01
12 25.01
15 25.01
18 25.01
21 25.01
00 26.01
03 26.01
06 26.01
09 26.01
12 26.01
15 26.01
18 26.01
21 26.01
00 27.01
03 27.01
06 27.01
09 27.01
12 27.01
15 27.01
18 27.01
Ветер
(напр.,м/с)
Видим. Явления Облачность Т
(С)
Тd
(С)
f
(%)
Тe
(С)
Тes
(С)
Комфортность P
(гПа)
Po
(гПа)
Тmin
(С)
Tmax
(С)
R
(мм)
R24
(мм)
S
(см)
ЮВ 3 9000 м слаб. снег 10/0
[As op]
-16.7 -19.3 80 -24 -24 по сезону 1008.6 1000.8
ЮВ 2 3000 м снег 10/0
[As op]
-17.3 -19.9 80 -23 -23 по сезону 1009.2 1001.4
ЮВ 1 9000 м слаб. снег 10/0
[As op]
-18.1 -20.7 80 -21 -21 по сезону 1010.6 1002.7 -18.1 2 31
ЮВ 1 9000 м слаб. снег 10/0
[As op]
-18.3 -20.9 80 -21 -21 по сезону 1011.4 1003.5 -18.4
штиль 0 9000 м слаб. снег 10/0
[As op]
-17.9 -20.5 80 -18 -18 по сезону 1012.6 1004.7
штиль 0 3600 м снег 10/0
[As op]
-18.3 -20.9 80 -18 -18 по сезону 1013.4 1005.4
С 1 9000 м слаб. снег 10/0
[As op]
-18.7 -21.3 80 -22 -22 по сезону 1014.4 1006.4 -17.7 0.7
С 1 7000 м слаб. снег 10/0
[As op]
-18.8 -21.4 80 -22 -22 по сезону 1016.0 1008.0
СЗ 1 9000 м слаб. снег 10/0
[As op]
-18.6 -21.2 80 -21 -21 по сезону 1017.3 1009.3
З 1 8000 м слаб. снег 10/0
[As op]
-19.2 -21.8 80 -22 -22 по сезону 1018.9 1010.9
С 1 15 км {снег} 6/0
[Ac trans]
-22.9 -25.5 79 -26 -26 по сезону 1020.3 1012.1 -22.9 0.6 31
СЗ 1 15 км {снег} 4/4 300 м
[St]
-25.4 -27.8 80 -29 -29 прохладно 1022.3 1014.1 -25.6
СЗ 1 15 км 3/0
[Ci fib]
-26.0 -28.4 80 -30 -29 холодно 1024.5 1016.2
штиль 0 15 км 1/0 -29.1 -31.6 79 -29 -29 прохладно 1026.5 1018.4
штиль 0 15 км ясно -32.5 -34.8 80 -33 -33 опасность
обморожения
1028.1 1019.5 -22.6
штиль 0 15 км ясно -34.6 -37.4 76 -35 -35 опасность
обморожения
1029.0 1020.4
штиль 0 15 км ясно -35.6 -38.4 75 -36 -36 опасность
обморожения
1030.1 1021.5
штиль 0 15 км ясно -37.1 -40.1 73 -37 -37 опасность
обморожения
1031.0 1022.4
Ю 1 15 км 6/0
[Ac trans]
-35.9 -38.7 75 -41 -41 опасность
обморожения
1031.6 1023.0 -37.3 31
ЮВ 2 15 км 8/0
[Ac trans Ci fib]
-31.4 -34.3 75 -39 -39 опасность
обморожения
1031.6 1023.2
ЮВ 2 15 км 6/0
[Ac trans Ci fib]
-30.5 -33.6 74 -38 -38 опасность
обморожения
1032.3 1023.9
ЮВ 2 15 км 3/0
[Ac trans]
-30.6 -33.6 75 -38 -38 опасность
обморожения
1032.3 1023.9
ЮВ 2 15 км ясно -30.8 -33.9 74 -38 -38 опасность
обморожения
1032.0 1023.6 -30.0
ЮВ 2 15 км ясно -30.9 -33.9 75 -39 -39 опасность
обморожения
1030.9 1022.5
Ю 2 15 км 8/0
[Ci fib]
-29.9 -33.0 74 -37 -37 опасность
обморожения
1029.7 1021.3
ЮВ 3 15 км 9/0
[Ci fib]
-27.2 -30.3 75 -36 -36 опасность
обморожения
1026.9 1018.6
Ю 3 15 км 10/0
[Ac und]
-24.1 -28.1 69 -33 -33 опасность
обморожения
1024.5 1016.2 -31.0 31
ЮВ 4 2100 м снег 10/0
[As op]
-19.0 -22.3 75 -28 -28 прохладно 1021.4 1013.4
Ю 6-12
{12}
4200 м слаб. снег {метель} 10/0
[As op]
-18.0 -21.4 75 -28 -28 прохладно 1019.7 1011.7
ЮВ 6-12
{12}
2600 м снег {метель} 10/0
[As op]
-19.1 -22.4 75 -30 -30 холодно 1020.3 1012.3
ЮВ 4
{12}
10 км слаб. снег {метель} 10/0
[As op]
-20.2 -23.5 75 -29 -29 прохладно 1020.1 1012.1 -17.7 2
ЮВ 4
{12}
2600 м снег {метель} 10/8 420 м
[Sc As op]
-20.9 -24.2 75 -30 -30 холодно 1019.6 1011.6
ЮВ 4
{10}
1600 м сильн. снег 10/8 210 м
[Frnb As op]
-20.9 -24.2 75 -30 -30 холодно 1018.5 1010.5
ЮВ 4
{11}
1400 м сильн. снег {метель} 10/6 210 м
[Frnb As op]
-20.0 -23.3 75 -29 -29 прохладно 1017.6 1009.6
ЮВ 4 1300 м сильн. снег {метель} 10/6 210 м
[Frnb As op]
-18.6 -21.2 80 -27 -27 по сезону 1015.9 1007.9 -20.9 4 35
В 3 15 км в посл. час снег {метель} 10/10 700 м
[Sc]
-17.2 -19.8 80 -24 -24 по сезону 1014.7 1006.8
ЮВ 3 6000 м слаб. снег 10/8 450 м
[Sc As op]
-15.5 -18.2 80 -22 -22 по сезону 1014.9 1007.0
ЮВ 2 15 км {снег} 9/9 800 м
[Sc]
-15.5 -18.2 80 -21 -21 по сезону 1014.9 1007.0
ЮВ 4 15 км 9/0
[Ac trans]
-15.2 -17.9 80 -23 -23 по сезону 1014.9 1007.0 -15.0 0.4
ЮВ 3 10 км слаб. снег 10/6 360 м
[Frnb As op]
-14.4 -17.1 80 -21 -21 по сезону 1013.6 1005.7
ЮВ 3 3500 м переохл. морось (гололёд) {снег} [диам. гололёда 0 мм] 10/10 270 м
[St]
-12.8 -14.8 85 -19 -19 по сезону 1011.4 1003.6
ЮВ 2 800 м сильн. снег {морось} [диам. гололёда 2 мм] 10/0
[As op]
-10.6 -11.9 90 -15 -15 по сезону 1009.9 1002.3
ЮВ 2 4100 м слаб. снег [диам. гололёда 2 мм] 10/6 330 м
[Frnb As op]
-9.1 -11.1 85 -14 -14 тепло 1009.1 1001.5 -15.2 4 39
С 1 1900 м сильн. снег [диам. гололёда 2 мм] 10/0
[As op]
-8.1 -9.5 90 -11 -11 тепло 1008.9 1001.3
С 3 7000 м слаб. снег [диам. гололёда 2 мм] 10/0
[As op]
-9.2 -11.2 85 -15 -15 по сезону 1010.5 1002.9
С 4 10 км слаб. снег [диам. гололёда 2 мм] 10/0
[As op]
-12.9 -14.9 85 -20 -20 по сезону 1014.4 1006.5
С 4 15 км в посл. час снег 9/0
[Ac trans]
-16.4 -19.0 80 -25 -25 по сезону 1017.6 1009.7 -7.8 3
СЗ 3 15 км {снег} 9/0
[Ac trans]
-20.6 -23.1 80 -28 -28 холодно 1020.0 1012.0
СЗ 4 15 км 8/0
[Ac trans]
-25.6 -28.8 74 -36 -36 опасность
обморожения
1021.7 1013.5
С 3 15 км 9/0
[Ac trans]
-25.2 -28.4 75 -34 -34 опасность
обморожения
1022.0 1013.8
С 1 15 км 10/0
[Ac trans Ci fib]
-24.0 -27.2 75 -27 -27 холодно 1021.4 1013.2 -25.7 40
СВ 2 15 км 10/0
[As op]
-23.7 -27.0 74 -30 -30 очень
холодно
1019.7 1011.5
СВ 1 2500 м снег 10/6 210 м
[Frnb As op]
-23.2 -26.4 75 -27 -27 холодно 1018.7 1010.5
СВ 1 1900 м сильн. снег 10/8 210 м
[Frnb As op]
-22.4 -25.6 75 -26 -26 холодно 1016.4 1008.4
СЗ 1 1900 м сильн. снег 10/0
[As op]
-21.4 -24.7 75 -25 -25 прохладно 1013.8 1005.8 -21.2 4
С 1 10 км слаб. снег 10/8 400 м
[Frnb As op]
-19.4 -22.0 80 -22 -22 по сезону 1010.5 1002.6
Местоположение метеостанции Печора (Коми, Россия): широта 65.12 долгота 57.10 высота над уровнем моря 59 м.
В архиве по умолчанию представлена погода в Печоре за последнюю неделю. Архивные данные за месяц целиком и за предыдущие месяцы, начиная с января 2011 года, Вы можете получить, выбрав интересующий диапазон дат из раскрывающегося списка и нажав кнопку "Найти!".
*Определитесь, кто Вы:
Внимание! Время в таблицах - всемирное. Для получения местного времени необходимо прибавить поправку, которая равна 3 ч.
Смотрите также архив погоды в соседних городах и на ближайших метеорологических станциях:
Партнеры нашего сайта:      
Пояснения к столбцам:
  • Ветер - указаны скорость ветра в м/с - средняя за 10 мин, порывы в срок и между сроками (в фигурных скобках) и направление, откуда дует ветер: С - северный,
  • СВ - северо-восточный, В - восточный, ЮВ - юго-восточный, Ю - южный, ЮЗ - юго-западный, З - западный, СЗ - северо-западный.
  • Видимость - горизонтальная дальность видимости в метрах или километрах. При видимости от 1 до 10 км при отсутствии осадков обычно наблюдается дымка, при ухудшении видимости до 1 км и менее - туман. В сухую погоду видимость может ухудшаться дымом, пылью или мглою.
  • Явления - указаны атмосферные явления, наблюдавшиеся в срок или в последний час перед сроком; фигурными скобками обозначены явления, наблюдавшиеся между сроками (за 1-3 часа до срока); квадратными скобками обозначены град или гололедные отложения с указанием их диаметра в мм.
  • Облачность - указаны через наклонную черту общая и нижняя облачность в баллах и высота нижней границы облаков в метрах; квадратными скобками обозначены формы облаков: Ci - перистые, Cs - перисто-слоистые, Cc - перисто-кучевые, Ac - высококучевые, As - высокослоистые, Sc - слоисто-кучевые, Ns - слоисто-дождевые, Cu - кучевые, Cb - кучево-дождевые. Подробнее классификацию облаков см. в Атласе облаков (PDF).
  • T - Температура воздуха - температура, измеренная на высоте 2 м над землей.
  • Td - Температура точки росы - температура, при понижении до которой содержащийся в воздухе водяной пар достигнет насыщения.
  • f - Относительная влажность воздуха - влажноcть воздуха, измеренная на высоте 2 м над землей.
  • Te - Эффективная температура - температура, которую ощущает одетый по сезону человек в тени. Характеристика душности погоды. При расчете учитывается влияние влажности воздуха и скорости ветра на теплоощущения человека.
  • Tes - Эффективная температура на солнце - температура, которую ощущает человек, с поправкой на солнечный нагрев. Характеристика знойности погоды. Зависит от высоты солнца над горизонтом, облачности и скорости ветра. Ночью, в пасмурную погоду, а также при ветре 12 м/с и более поправка равна нулю.
  • P - Атмосферное давление - приведенное к уровню моря атмосферное давление.
  • Po - Атмосферное давление - измеренное на уровне метеостанции атмосферное давление.
  • Tmin - Минимальная температура - минимум температуры воздуха на высоте 2 м над землей.
  • Tmax - Максимальная температура - максимум температуры воздуха на высоте 2 м над землей.
  • R - Количество осадков - Количество выпавших осадков за период времени, мм. При наведении курсора мыши на число - период времени, за который выпало указанное количество осадков.
  • R24 - Количество осадков - Количество выпавших осадков за 24 часа, мм.
  • S - Снежный покров - Высота снежного покрова, см. При наведении курсора мыши на число - состояние снежного покрова и степень покрытия местности в баллах.